User: anonymous   Login
Location: �chenoz-la-M�line
(47.6009°N, 6.1354°E)
Time: 03:03:11
(UTC+00:00)
Language:

SJ-12 - Orbit

View from above orbital plane
View from above orbital plane
View from above satellite
View from above satellite

Ground track
Ground track

The orbit data is extracted from the following two-line orbital elements,

1 36596U 10027A   21102.58772100  .00000797  00000-0  74356-4 0  9997
2 36596  97.6837  91.7524 0012973  41.9497 318.2716 14.96937479590534
Epoch (UTC): 12 April 2021 14:06:19
Eccentricity: 0.0012973
inclination: 97.6837°
perigee height: 567 km
apogee height: 585 km
right ascension of ascending node: 91.7524°
argument of perigee: 41.9497°
revolutions per day: 14.96937479
mean anomaly at epoch: 318.2716°
orbit number at epoch: 59053

The dashed part of the orbit path shows where the satellite is in the earth's shadow,  

DLR